Regional Weather Roundup
Issued by NWS Albany, NY

Home | Current Version | Previous Version | Text Only | Print | Product List | Glossary On
Versions: 1 2 3 4 5 6 7 8 9 10 11 12 13 14 15 16 17 18 19 20 21 22 23 24 25 26 27 28 29 30 31 32 33 34 35 36 37 38 39 40 41 42 43 44 45 46 47 48 49 50
000
ASUS41 KALY 291810
RWRALY

NEW YORK STATE HOURLY WEATHER ROUNDUP
NATIONAL WEATHER SERVICE ALBANY NY
200 PM EDT FRI MAY 29 2015

NOTE: "FAIR" INDICATES FEW OR NO CLOUDS BELOW 12,000 FEET WITH NO
SIGNIFICANT WEATHER AND/OR NO OBSTRUCTIONS TO VISIBILITY.

NYZ032-033-038>043-046>054-057>066-NYZ062>081-291900-
EAST


CITY           SKY/WX    TMP DP  RH WIND       PRES   REMARKS
ALBANY         PTSUNNY   81  53  37 S5        30.25F
GLENS FALLS    SUNNY     78  51  38 S5        30.25F
POUGHKEEPSIE   SUNNY     79  55  43 W6        30.25F
NEWBURGH       SUNNY     79  57  47 CALM      30.28F
MONTGOMERY     SUNNY     79  58  48 SW7       30.26F
WHITE PLAINS   SUNNY     76  55  48 CALM      30.27F
ISLIP          MOSUNNY   78  56  46 SE10      30.26S
NEW YORK CITY  MOSUNNY   81  54  39 NE8       30.25F
CENTRAL PARK   SUNNY     84  55  36 CALM      30.28F
$$

NYZ005>009-017-018-044>046-055-056-291900-
CENTRAL


CITY           SKY/WX    TMP DP  RH WIND       PRES   REMARKS
FULTON         PTSUNNY   79  52  38 VRB6      30.22F
SYRACUSE       PTSUNNY   81  51  35 CALM      30.22F
ROME           MOSUNNY   79  55  43 VRB3      30.25F
ELMIRA         PTSUNNY   82  56  40 S9        30.22F
BINGHAMTON     MOSUNNY   76  54  46 VRB7      30.28F
MONTICELLO     SUNNY     75  57  53 SW8       30.30F
$$

NYZ026>034-041>043-291900-
NORTH


CITY           SKY/WX    TMP DP  RH WIND       PRES   REMARKS
WATERTOWN      PTSUNNY   78  56  46 W12       30.22F
FORT DRUM      NOT AVBL
MASSENA        MOSUNNY   79  59  50 VRB3      30.22F
SARANAC LAKE   SUNNY     75  49  39 VRB6      30.25F
PLATTSBURGH    SUNNY     75  50  41 SE12      30.24F
$$

NYZ001>004-010>016-019>021-291900-
WEST


CITY           SKY/WX    TMP DP  RH WIND       PRES   REMARKS
NIAGARA FALLS  CLOUDY    81  55  40 SW10      30.17S
BUFFALO        PTSUNNY   83  54  36 SW13      30.18S
DUNKIRK        PTSUNNY   83  61  47 S9        30.16F
JAMESTOWN      PTSUNNY   79  61  53 S9        30.22F
WELLSVILLE     MOSUNNY   79  55  43 S8G16     30.26F
ROCHESTER      CLOUDY    81  56  42 S8        30.19F
PENN YAN       PTSUNNY   81  54  39 SW9       30.23F
$$

             KEY
       WCI = WIND CHILL INDEX
       VSB = VISIBILITY
       HX  = HEAT INDEX
$$



USA.gov is the U.S. government's official web portal to all federal, state and local government web resources and services.